Location: Artiguedieu
(43.5000°N, 0.5454°E)
Time: 06:20:18
(UTC+00:00)

Tianhe-1 - Visible Passes

Search period start: 24 June 2021 00:00
Search period end: 04 July 2021 00:00
Orbit: 375 x 386 km, 41.5° (Epoch: 23 June)

Date Brightness Start Highest point End Pass type
(mag) Time Alt. Az. Time Alt. Az. Time Alt. Az.
24 Jun 2.4 02:00:20 27° SE 02:00:20 27° SE 02:02:27 10° E visible
24 Jun 1.2 03:33:02 10° WSW 03:36:08 59° S 03:39:15 10° E visible
25 Jun 1.2 02:34:02 33° SW 02:35:07 52° S 02:38:12 10° E visible
26 Jun 2.8 01:35:39 23° ESE 01:35:39 23° ESE 01:37:06 10° E visible
26 Jun 1.1 03:07:45 11° W 03:10:41 59° S 03:13:48 10° ESE visible
27 Jun 1.0 02:09:25 57° SSW 02:09:37 59° S 02:12:43 10° E visible
28 Jun 3.7 01:11:12 13° E 01:11:12 13° E 01:11:36 10° E visible
28 Jun 1.1 02:43:19 21° WSW 02:45:07 52° S 02:48:12 10° ESE visible
29 Jun 2.3 01:45:18 30° ESE 01:45:18 30° ESE 01:47:07 10° ESE visible
29 Jun 1.9 03:17:41 10° W 03:20:31 31° SSW 03:23:20 10° SE visible
30 Jun 1.5 02:19:47 40° S 02:19:47 40° S 02:22:26 10° ESE visible
01 Jul 2.3 02:54:53 22° SSW 02:54:53 22° SSW 02:57:13 10° SSE visible
02 Jul 3.5 21:36:48 10° SW 21:37:07 12° SW 21:37:07 12° SW visible
03 Jul 2.6 20:36:12 10° SSW 20:38:24 18° SSE 20:40:11 12° ESE visible
03 Jul 3.4 22:11:43 10° WSW 22:12:22 15° WSW 22:12:22 15° WSW visible
